Stations météo

réclame
Mon MeteoGroup
Cordoba Aeropuerto (AWS), Espagne (8410): Température de l'air & dewpoint: 13.06.2018 20:00:00 - 19.06.2018 20:00:00 (CEST)Cordoba Aeropuerto (AWS), Espagne (8410): Vitesse du vent: 13.06.2018 20:00:00 - 19.06.2018 20:00:00 (CEST)Cordoba Aeropuerto (AWS), Espagne (8410): Direction du vent: 13.06.2018 20:00:00 - 19.06.2018 20:00:00 (CEST)Cordoba Aeropuerto (AWS), Espagne (8410): reduced air pressure: 13.06.2018 20:00:00 - 19.06.2018 20:00:00 (CEST)Cordoba Aeropuerto (AWS), Espagne (8410): visibility: 13.06.2018 20:00:00 - 19.06.2018 20:00:00 (CEST)
Date & Time tt [°C] td [°C] ff [km/h] ff [knt] dd ppp [hPa] vv [km]
19.06.2018 20:00:00 - - - - - - -
19.06.2018 19:00:00 35,6 7,6 16 9 SSW 1014,3 -
19.06.2018 18:00:00 35,8 7,8 18 10 S 1014,7 -
19.06.2018 17:00:00 36,1 8,7 16 9 S 1015,0 50
19.06.2018 16:00:00 36,8 8,6 15 8 S 1015,3 -
19.06.2018 15:00:00 35,2 10,1 11 6 W 1015,8 -
19.06.2018 14:00:00 34,1 11,0 5 3 E 1017,0 50
19.06.2018 13:00:00 32,4 11,0 8 4 ESE 1017,7 -
19.06.2018 12:00:00 30,9 10,8 8 4 ESE 1018,2 -
19.06.2018 11:00:00 28,9 10,1 5 3 ESE 1018,6 50
19.06.2018 10:00:00 26,7 12,6 4 2 E 1018,9 -
19.06.2018 09:00:00 24,5 15,1 8 4 E 1018,9 -
19.06.2018 08:00:00 21,0 15,1 0 0 N 1018,7 50
19.06.2018 07:00:00 19,5 15,4 5 3 S 1018,4 -
19.06.2018 06:00:00 19,8 15,4 4 2 WSW 1018,0 -
19.06.2018 05:00:00 20,8 14,9 9 5 SW 1017,8 -
19.06.2018 04:00:00 22,3 14,7 8 4 WSW 1017,6 -
19.06.2018 03:00:00 23,4 14,9 11 6 WSW 1017,5 -
19.06.2018 02:00:00 24,3 14,7 11 6 WSW 1017,4 -
19.06.2018 01:00:00 25,5 14,3 11 6 WSW 1017,3 -
19.06.2018 00:00:00 26,8 13,9 13 7 SW 1016,6 -
18.06.2018 23:00:00 28,5 13,6 15 8 WSW 1015,8 -
18.06.2018 22:00:00 31,8 13,1 18 10 WSW 1014,4 -
18.06.2018 21:00:00 34,3 11,4 13 7 WNW 1013,1 -
18.06.2018 20:00:00 37,6 8,4 13 7 W 1012,8 40
18.06.2018 19:00:00 39,4 8,0 9 5 SW 1012,8 -
18.06.2018 18:00:00 38,2 7,0 5 3 ENE 1013,3 -
18.06.2018 17:00:00 38,8 6,8 5 3 NE 1013,9 40
18.06.2018 16:00:00 38,2 7,8 9 5 E 1014,7 -
18.06.2018 15:00:00 36,3 9,1 11 6 E 1015,6 -
18.06.2018 14:00:00 36,0 9,5 13 7 E 1016,2 40
18.06.2018 13:00:00 34,7 9,9 5 3 ESE 1017,0 -
18.06.2018 12:00:00 32,2 10,3 8 4 ENE 1017,6 -
18.06.2018 11:00:00 31,1 10,4 2 1 ESE 1018,1 40
18.06.2018 10:00:00 28,0 10,7 2 1 ESE 1018,1 -
18.06.2018 09:00:00 23,8 11,8 0 0 N 1018,4 -
18.06.2018 08:00:00 19,8 12,3 0 0 N 1018,3 40
18.06.2018 07:00:00 20,0 13,7 0 0 N 1017,8 -
18.06.2018 06:00:00 20,6 14,8 0 0 N 1017,7 -
18.06.2018 05:00:00 21,8 13,4 0 0 N 1017,5 -
18.06.2018 04:00:00 23,0 12,6 0 0 N 1017,6 -
18.06.2018 03:00:00 23,3 12,5 4 2 SW 1017,2 -
18.06.2018 02:00:00 25,3 12,1 2 1 SSW 1016,7 -
18.06.2018 01:00:00 27,1 9,4 8 4 W 1016,9 -
18.06.2018 00:00:00 27,3 10,9 8 4 WNW 1017,0 -
17.06.2018 23:00:00 28,9 13,2 9 5 S 1016,2 -
17.06.2018 22:00:00 30,9 14,9 4 2 W 1015,3 -
17.06.2018 21:00:00 37,2 11,2 4 2 WSW 1014,7 -
17.06.2018 20:00:00 38,4 8,1 5 3 SW 1014,4 25
17.06.2018 19:00:00 38,7 9,3 4 2 SSW 1014,4 -
17.06.2018 18:00:00 38,4 9,9 8 4 W 1014,6 -
17.06.2018 17:00:00 37,9 11,1 5 3 SW 1015,0 30
17.06.2018 16:00:00 36,8 11,6 5 3 W 1015,6 -
17.06.2018 15:00:00 34,8 11,2 5 3 NW 1016,1 -
17.06.2018 14:00:00 33,2 11,7 4 2 NW 1016,6 30
17.06.2018 13:00:00 32,0 11,0 4 2 W 1017,0 -
17.06.2018 12:00:00 30,6 11,0 5 3 W 1017,1 -
17.06.2018 11:00:00 29,2 11,3 2 1 SE 1017,2 -
17.06.2018 10:00:00 26,4 12,1 2 1 NE 1017,3 -
17.06.2018 09:00:00 23,7 13,0 0 0 N 1017,3 -
17.06.2018 08:00:00 20,9 13,3 0 0 N 1016,9 25
17.06.2018 07:00:00 18,8 13,9 4 2 W 1016,5 -
17.06.2018 06:00:00 19,9 13,6 8 4 S 1015,8 -
17.06.2018 05:00:00 20,9 13,8 4 2 W 1015,6 -
17.06.2018 04:00:00 21,6 14,3 8 4 W 1015,3 -
17.06.2018 03:00:00 23,3 12,9 8 4 WSW 1014,7 -
17.06.2018 02:00:00 24,2 13,4 8 4 WSW 1014,4 -
17.06.2018 01:00:00 25,3 13,2 9 5 WSW 1014,1 -
17.06.2018 00:00:00 26,7 12,8 15 8 WSW 1013,7 -
16.06.2018 23:00:00 29,0 12,4 13 7 SW 1012,8 -
16.06.2018 22:00:00 30,4 11,9 9 5 W 1011,4 -
16.06.2018 21:00:00 34,2 10,7 15 8 W 1010,8 -
16.06.2018 20:00:00 36,6 8,4 13 7 WSW 1010,5 30
16.06.2018 19:00:00 37,5 6,5 11 6 SW 1010,3 -
16.06.2018 18:00:00 37,7 6,6 11 6 WSW 1010,5 -
16.06.2018 17:00:00 37,5 6,5 9 5 WSW 1010,8 30
16.06.2018 16:00:00 36,9 6,9 11 6 SW 1011,2 -
16.06.2018 15:00:00 35,5 11,2 11 6 W 1011,8 -
16.06.2018 14:00:00 33,9 11,1 8 4 W 1012,5 30
16.06.2018 13:00:00 32,1 12,3 9 5 W 1013,2 -
16.06.2018 12:00:00 29,7 12,2 5 3 W 1013,6 -
16.06.2018 11:00:00 27,7 12,3 0 0 N 1013,8 -
16.06.2018 10:00:00 26,6 12,6 0 0 N 1013,8 -
16.06.2018 09:00:00 23,5 13,9 0 0 N 1013,5 -
16.06.2018 08:00:00 20,0 13,2 0 0 N 1013,2 30
16.06.2018 07:00:00 18,5 14,0 0 0 N 1012,9 -
16.06.2018 06:00:00 19,5 14,5 0 0 N 1012,3 -
16.06.2018 05:00:00 20,1 14,2 4 2 WNW 1012,1 -
16.06.2018 04:00:00 20,3 14,4 8 4 W 1012,1 -
16.06.2018 03:00:00 22,9 13,4 11 6 SSW 1012,1 -
16.06.2018 02:00:00 24,2 12,8 13 7 WSW 1012,0 -
16.06.2018 01:00:00 24,0 13,5 8 4 SW 1012,1 -
16.06.2018 00:00:00 26,2 12,6 8 4 SW 1011,9 -
15.06.2018 23:00:00 28,2 11,3 9 5 WSW 1011,2 -
15.06.2018 22:00:00 29,7 11,4 8 4 SSW 1010,4 -
15.06.2018 21:00:00 34,6 8,4 9 5 WSW 1010,0 -
15.06.2018 20:00:00 36,4 4,6 11 6 WSW 1009,9 40
15.06.2018 19:00:00 36,9 5,0 9 5 WSW 1009,9 -
15.06.2018 18:00:00 37,0 5,1 9 5 SSE 1010,4 -
15.06.2018 17:00:00 36,8 4,9 8 4 SSW 1011,0 50
15.06.2018 16:00:00 36,3 4,5 8 4 WSW 1011,8 -
15.06.2018 15:00:00 35,4 3,8 4 2 SSW 1012,7 -
15.06.2018 14:00:00 33,6 6,0 4 2 WNW 1013,3 50
15.06.2018 13:00:00 32,4 7,3 5 3 NE 1014,1 -
15.06.2018 12:00:00 29,5 6,2 11 6 ENE 1014,6 -
15.06.2018 11:00:00 26,9 8,9 9 5 E 1015,0 40
15.06.2018 10:00:00 23,8 10,5 9 5 E 1015,3 -
15.06.2018 09:00:00 21,3 11,8 8 4 ENE 1015,2 -
15.06.2018 08:00:00 18,2 12,4 0 0 N 1014,9 50
15.06.2018 07:00:00 15,1 12,0 0 0 N 1014,7 -
15.06.2018 06:00:00 15,7 12,4 0 0 N 1014,4 -
15.06.2018 05:00:00 - - - - - - -
15.06.2018 04:00:00 17,8 13,5 0 0 N 1014,3 -
15.06.2018 03:00:00 18,8 14,0 0 0 N 1014,5 -
15.06.2018 02:00:00 19,7 13,8 5 3 NNW 1014,3 -
15.06.2018 01:00:00 21,7 13,6 5 3 SSW 1013,7 -
15.06.2018 00:00:00 22,4 14,8 4 2 SW 1013,5 -
14.06.2018 23:00:00 24,8 13,3 0 0 N 1013,2 -
14.06.2018 22:00:00 26,7 12,0 0 0 N 1012,5 -
14.06.2018 21:00:00 32,1 9,0 5 3 WSW 1011,8 -
14.06.2018 20:00:00 33,3 8,0 8 4 WSW 1011,4 50
14.06.2018 19:00:00 34,4 8,2 11 6 WSW 1011,1 -
14.06.2018 18:00:00 33,3 8,7 2 1 W 1011,6 -
14.06.2018 17:00:00 33,7 8,3 16 9 WSW 1012,0 50
14.06.2018 16:00:00 33,5 7,5 9 5 SSW 1012,7 -
14.06.2018 15:00:00 31,6 8,1 4 2 ESE 1013,3 -
14.06.2018 14:00:00 30,1 8,8 5 3 NNE 1014,2 40
14.06.2018 13:00:00 28,5 11,2 9 5 ENE 1014,7 -
14.06.2018 12:00:00 27,1 12,3 5 3 ENE 1015,1 -
14.06.2018 11:00:00 24,5 12,9 9 5 E 1015,3 40
14.06.2018 10:00:00 22,2 13,3 0 0 N 1015,5 -
14.06.2018 09:00:00 20,3 13,0 0 0 N 1015,4 -
14.06.2018 08:00:00 17,4 12,5 0 0 N 1015,4 40
14.06.2018 07:00:00 15,3 12,4 0 0 N 1015,4 -
14.06.2018 06:00:00 16,0 12,7 0 0 N 1015,1 -
14.06.2018 05:00:00 17,1 12,2 2 1 WSW 1015,2 -
14.06.2018 04:00:00 17,4 12,1 8 4 SW 1015,1 -
14.06.2018 03:00:00 18,6 12,6 8 4 WSW 1015,4 -
14.06.2018 02:00:00 20,0 13,0 11 6 SW 1015,3 -
14.06.2018 01:00:00 21,4 13,1 11 6 SW 1015,4 -
14.06.2018 00:00:00 23,1 12,7 13 7 WSW 1015,1 -
13.06.2018 23:00:00 25,3 12,8 16 9 SW 1014,3 -
13.06.2018 22:00:00 26,1 8,1 8 4 WNW 1013,5 -
13.06.2018 21:00:00 30,3 7,5 13 7 NW 1013,0 -
13.06.2018 20:00:00 32,6 7,4 13 7 W 1012,7 40

tt = Température de l'air
td = dewpoint
ff = Vitesse du vent
dd = Direction du vent
ppp = reduced air pressure
vv = visibility

stations d'obs. à proximité